Regional Weather Roundup
Issued by NWS

Home | Current Version | Previous Version | Graphics & Text | Print | Product List | Glossary On
Versions: 1 2 3 4 5 6 7 8 9 10 11 12 13 14 15 16 17 18 19 20 21 22 23 24 25 26 27 28 29 30 31 32 33 34 35 36 37 38 39 40 41 42 43 44 45 46 47 48 49 50
000
ASUS45 KPSR 291610
RWRAZ

ARIZONA REGIONAL HOURLY WEATHER ROUNDUP
NATIONAL WEATHER SERVICE PHOENIX AZ
900 AM MST FRI AUG 29 2014

NOTE: FAIR INDICATES FEW OR NO CLOUDS BELOW 12,000 FEET WITH NO
SIGNIFICANT WEATHER AND/OR OBSTRUCTIONS TO VISIBILITY.

AZZ001>003-036-291700-
NORTHWEST ARIZONA

CITY           SKY/WX    TMP DP  RH WIND       PRES   REMARKS
BULLHEAD CITY  SUNNY     86  39  19 CALM      29.86R
KINGMAN        SUNNY     84  41  21 N3        30.04S
$$

AZZ004>008-015-016-018-291700-
NORTH CENTRAL ARIZONA

CITY           SKY/WX    TMP DP  RH WIND       PRES   REMARKS
GRAND CANYON   SUNNY     72  39  30 CALM      30.29S
WILLIAMS       SUNNY     70  39  32 CALM      30.34S
PRESCOTT       SUNNY     75  46  35 CALM      30.16S
FLAGSTAFF      SUNNY     68  41  37 CALM      30.30S
PAYSON         SUNNY     79  41  25 N6        30.17S
PAGE           SUNNY     75  44  33 VRB5      30.13R
$$

AZZ009>014-017-291700-
NORTHEAST ARIZONA

CITY           SKY/WX    TMP DP  RH WIND       PRES   REMARKS
WINSLOW        SUNNY     70  49  47 VRB3      30.18R
SAINT JOHNS    SUNNY     70  49  47 CALM      30.21S
WINDOW ROCK    SUNNY     69  41  36 CALM      30.28
SHOW LOW       SUNNY     66  41  39 CALM      30.27S
$$

AZZ023-291700-
GREATER PHOENIX AREA

CITY           SKY/WX    TMP DP  RH WIND       PRES   REMARKS
PHOENIX        SUNNY     94  46  19 E8        29.84R
BUCKEYE          N/A     88  54  31 CALM      29.85R
GLENDALE       SUNNY     91  50  24 NE3       29.86S
LUKE AFB       NOT AVBL
DEER VALLEY    SUNNY     92  44  19 CALM      29.86S
SCOTTSDALE     SUNNY     89  50  26 W3        29.89R
MESA-GATEWAY   SUNNY     86  48  26 SE5       29.89R
CHANDLER       SUNNY     86  52  30 CALM      29.87R
$$

AZZ027-028-291700-
SOUTHWEST MARICOPA COUNTY AND PINAL COUNTY

CITY           SKY/WX    TMP DP  RH WIND       PRES   REMARKS
CASA GRANDE    SUNNY     86  52  30 SE7       29.88S
GILA BEND      MOSUNNY   91  48  22 NE5       29.84R
$$

AZZ503-504-507>509-291700-
SOUTHEAST ARIZONA

CITY           SKY/WX    TMP DP  RH WIND       PRES   REMARKS
TUCSON         SUNNY     82  52  35 S3        29.97S
DAVIS-MONTHAN  SUNNY     85  49  28 SE5       29.96R
RYAN FIELD       N/A     82  55  39 CALM      29.96S
NOGALES        SUNNY     77  57  50 CALM      30.06R
SIERRA VISTA   SUNNY     82  46  28 CALM      30.12R
DOUGLAS        SUNNY     81  51  35 N6        30.08R
SAFFORD        SUNNY     80  46  30 VRB3      30.00R
$$

AZZ020-021-025-026-031-291700-
SOUTHWEST ARIZONA

CITY           SKY/WX    TMP DP  RH WIND       PRES   REMARKS
YUMA           SUNNY     95  46  18 CALM      29.77S
$$

CAZ031-033-041-043-047-048-061-291700-
SOUTHERN CALIFORNIA

CITY           SKY/WX    TMP DP  RH WIND       PRES   REMARKS
DOWNTOWN L.A.  SUNNY     74  62  66 CALM      29.87F
L.A. AIRPORT   MOSUNNY   72  63  73 SW5       29.89S
SAN DIEGO      MOSUNNY   75  65  70 CALM      29.90S
BURBANK        SUNNY     75  47  36 CALM      29.89S
ONTARIO        MOSUNNY   79  46  31 CALM      29.90S
RIVERSIDE      SUNNY     76  49  38 CALM      29.90F
PALM SPRINGS   SUNNY     93  50  23 CALM      29.81S
EL CENTRO NAS  SUNNY     94  49  21 W3        29.76R
IMPERIAL       SUNNY     95  53  24 CALM      29.76R
BLYTHE         SUNNY     90  44  20 CALM      29.80S
NEEDLES        SUNNY     90  39  16 NE5       29.85R
$$

NVZ020-UTZ003-291700-
SOUTHERN NEVADA-UTAH

CITY           SKY/WX    TMP DP  RH WIND       PRES   REMARKS
LAS VEGAS      SUNNY     89  35  14 S5        29.91R
SALT LAKE CITY MOSUNNY   72  48  42 S10       30.10S
$$

NMZ009-TXZ055-291700-
NEW MEXICO-WEST TEXAS

CITY           SKY/WX    TMP DP  RH WIND       PRES   REMARKS
ALBUQUERQUE    MOSUNNY   71  45  39 NW5       30.19S
EL PASO        MOSUNNY   81  47  30 N16       30.05R
$$


........................KEY........................
SKY/WX - SKY CONDITION/WEATHER
TMP    - TEMPERATURE IN FAHRENHEIT
DP     - DEW POINT IN FAHRENHEIT
RH     - RELATIVE HUMIDITY IN PERCENT
WIND   - DIRECTION AND SPEED IN MILES PER HOUR (MPH)
VRB    - VARIABLE WIND DIRECTION
PRES   - MEAN SEA LEVEL PRESSURE IN INCHES OF MERCURY
         F - FALLING PRESSURE   R - RISING PRESSURE
         S - STEADY PRESSURE
VSB    - VISIBILITY IN MILES
HX     - HEAT INDEX IN FAHRENHEIT
WCI    - WIND CHILL INDEX IN FAHRENHEIT
TC     - TEMPERATURE IN CELSIUS WHICH IS ALSO KNOWN AS
         TEMPERATURE IN CENTIGRADE
AFB    - AIR FORCE BASE
         LUKE AFB IS LUKE AIR FORCE BASE
         DAVIS-MONTHAN IS DAVIS-MONTHAN AIR FORCE BASE
NAS    - NAVAL AIR STATION
         EL CENTRO NAS IS EL CENTRO NAVAL AIR STATION
N/A    - NOT AVAILABLE



USA.gov is the U.S. government's official web portal to all federal, state and local government web resources and services.